Vorticity
nan nan nan nan nan nan nan nan nan nan nan nan nan nan nan nan nan nan nan nan nan nan nan nan nan nan nan nan nan nan nan nan nan nan nan nan nan nan nan nan nan nan nan nan nan nan nan nan nan nan nan nan nan nan nan nan nan nan nan nan nan nan nan nan nan nan nan nan nan
nan 5 3 3 3 4 6 9 10 9 7 8 10 10 9 8 10 10 10 8 7 7 8 10 12 12 14 14 12 12 11 13 12 10 10 10 8 7 6 8 9 9 9 8 5 3 10 10 2 1 5 11 13 11 8 9 12 14 14 5 2 9 13 13 12 13 11 7 nan
nan 9 7 5 2 0 2 7 9 9 6 6 7 8 8 8 9 9 10 9 7 6 6 9 13 14 15 13 11 12 12 14 13 10 9 12 12 8 4 6 10 8 7 7 5 3 8 9 4 3 4 10 12 11 11 11 10 11 15 7 1 6 9 14 15 12 10 13 nan
nan 9 10 11 6 1 -2 2 7 8 7 8 9 9 8 8 8 9 10 11 10 7 6 6 10 13 15 15 12 10 11 12 12 10 8 10 13 11 6 5 8 8 7 7 7 6 7 3 1 5 9 11 10 8 9 14 12 7 10 10 6 8 8 11 13 11 10 13 nan
nan 10 9 13 13 8 4 4 5 6 6 7 8 8 8 9 9 9 9 10 10 9 7 4 5 9 13 15 14 11 11 12 10 8 10 11 12 12 11 8 7 7 8 9 9 8 8 0 -2 6 11 11 9 10 12 13 10 5 5 8 10 10 9 10 10 10 9 10 nan
nan 11 8 10 13 11 8 8 9 6 5 6 5 3 2 5 7 7 6 7 9 10 10 8 6 8 10 13 14 13 12 12 11 10 11 11 12 14 13 11 8 6 8 11 11 8 7 -0 -3 5 9 10 12 14 16 11 6 6 5 6 9 9 11 9 8 10 10 10 nan
nan 12 11 10 11 9 8 7 10 9 7 8 8 4 0 -0 2 3 3 4 7 11 12 14 11 9 10 12 12 13 12 11 12 12 10 10 11 13 13 12 10 8 8 10 11 8 7 1 -1 5 9 9 13 17 15 9 7 7 7 4 6 9 12 9 7 11 14 14 nan
nan 14 14 14 13 12 10 8 7 7 6 6 10 9 6 3 3 3 4 5 6 9 10 13 13 10 8 8 10 12 13 11 11 12 11 11 13 12 12 11 10 9 8 9 10 7 4 1 1 6 7 8 12 17 17 11 7 7 7 3 3 7 8 9 10 12 16 16 nan
nan 13 13 14 13 13 13 12 9 6 4 3 5 7 8 7 7 7 7 8 8 8 7 10 13 12 10 8 8 9 11 13 13 12 12 13 14 12 11 13 12 10 8 10 12 9 1 -2 1 5 6 8 11 15 18 14 8 6 4 4 5 7 7 8 9 10 11 13 nan
nan 8 9 11 11 11 12 12 12 10 8 6 7 8 8 9 9 8 8 8 10 9 7 8 11 13 13 12 10 9 9 11 14 15 14 13 14 12 9 12 14 11 9 9 12 12 4 -1 2 4 4 8 12 14 16 14 9 5 -0 4 11 12 9 8 9 8 7 9 nan
nan 7 7 9 11 11 12 12 13 14 13 12 12 11 11 11 9 8 6 6 7 8 7 8 10 11 12 14 14 11 9 8 11 14 15 14 13 11 9 10 13 12 10 8 9 9 7 6 7 6 3 5 11 13 15 13 9 5 -1 3 12 13 11 8 7 7 7 9 nan
nan 10 10 10 11 11 12 12 12 14 15 13 13 13 13 13 11 9 7 6 7 9 11 11 11 10 9 12 14 13 12 10 9 10 13 13 12 11 10 9 11 11 12 9 5 6 8 10 10 9 6 1 4 11 17 15 10 7 4 4 8 9 9 9 6 4 7 10 nan
nan 11 12 12 12 12 12 11 11 13 14 13 12 13 13 13 13 12 11 10 9 10 12 14 13 11 10 9 12 12 13 13 11 9 10 11 11 11 10 10 10 11 11 10 6 5 8 11 12 10 8 2 0 9 15 15 10 9 7 6 6 7 8 8 5 4 6 7 nan
nan 12 12 13 12 12 13 11 11 12 13 12 12 12 12 13 14 14 13 13 11 10 11 13 14 13 12 10 10 11 11 12 12 10 8 8 9 10 9 9 10 9 9 10 10 8 7 9 11 10 9 5 2 6 11 11 10 10 9 8 6 7 7 7 5 5 6 6 nan
nan 13 13 12 12 11 11 11 10 11 12 13 12 11 11 13 15 14 14 13 13 12 11 11 12 13 14 13 11 11 11 11 11 10 9 9 9 9 8 9 10 9 8 9 11 11 9 9 9 10 10 8 6 7 8 9 9 9 10 9 8 7 7 7 6 5 6 6 nan
nan 14 13 12 11 9 9 8 9 11 12 12 11 11 10 11 13 14 14 13 13 13 12 10 10 12 15 16 14 13 12 11 11 10 9 10 11 11 10 9 10 10 9 9 8 9 10 9 9 10 10 9 9 8 9 10 10 10 10 9 8 7 7 7 6 6 7 7 nan
nan 14 14 12 11 9 8 6 6 8 10 10 10 10 10 9 11 13 14 12 11 11 11 10 9 11 13 15 15 14 13 13 12 11 10 10 11 12 11 10 10 11 11 10 8 8 9 8 8 10 11 10 9 9 10 11 11 12 11 10 8 7 8 7 6 7 8 9 nan
nan 14 14 13 12 12 10 8 6 6 8 8 9 9 9 9 8 10 12 12 10 9 10 9 9 10 12 12 11 11 12 13 12 11 10 10 11 11 11 10 10 11 12 12 10 9 9 9 8 8 9 10 9 9 10 11 12 13 12 10 9 8 8 7 6 7 9 10 nan
nan 15 14 14 14 14 13 11 9 8 8 9 9 9 9 8 7 7 8 10 10 10 10 10 9 10 11 10 8 8 9 12 12 11 9 9 10 11 11 11 10 11 11 12 12 11 10 10 9 8 8 9 9 9 9 10 11 12 12 10 9 8 8 8 7 7 8 10 nan
nan 14 14 15 15 14 14 13 11 10 9 10 10 9 9 9 8 8 7 9 10 10 10 9 9 9 10 10 8 7 6 10 13 12 10 10 10 11 12 12 11 11 11 12 12 12 11 10 10 9 9 9 9 8 9 9 10 10 8 9 10 9 8 8 8 7 7 9 nan
nan 15 15 15 14 14 13 13 12 12 11 11 11 11 10 10 10 10 9 9 10 10 10 10 8 8 8 9 8 7 5 7 12 12 11 11 11 11 12 12 11 10 11 11 13 13 12 11 10 9 10 11 10 9 9 10 10 9 5 5 9 9 8 8 9 8 7 8 nan
nan 15 15 16 15 14 13 12 12 12 12 12 12 12 11 11 11 11 11 11 12 11 11 11 10 9 8 8 9 7 5 6 10 10 10 11 12 12 12 12 11 10 10 11 12 14 13 12 10 10 9 11 12 11 10 9 9 9 7 5 7 8 8 8 9 9 8 8 nan
nan 15 16 17 16 14 13 13 12 12 12 11 12 12 12 11 11 11 11 11 12 12 11 12 13 13 10 9 9 8 7 7 8 9 9 8 10 11 11 12 12 10 9 10 12 13 13 14 14 12 10 12 14 13 12 8 6 8 9 8 6 7 8 8 9 9 9 8 nan
nan 14 15 15 14 14 13 13 12 12 12 12 12 12 12 11 11 12 12 11 11 11 9 9 13 14 13 11 11 10 9 8 9 10 10 9 9 10 10 11 12 12 8 10 11 8 3 6 12 14 13 13 14 14 13 10 7 7 9 9 8 8 8 9 9 8 9 8 nan
nan 14 13 12 12 12 12 12 11 11 11 12 12 12 12 11 11 11 11 11 11 11 10 8 9 11 13 13 13 11 11 11 11 11 12 11 10 9 8 9 11 12 12 18 18 7 -5 -10 -4 4 10 13 13 13 13 12 9 7 7 9 9 8 9 11 10 9 9 9 nan
nan 13 14 14 13 12 12 11 11 11 11 11 11 11 11 12 12 12 11 11 11 12 12 11 10 10 10 12 13 12 11 12 12 12 12 12 11 9 5 5 8 11 16 23 23 13 3 -7 -13 -12 -4 7 12 11 11 13 12 9 8 8 8 8 9 11 12 11 9 9 nan
nan 12 14 14 14 13 13 13 12 12 11 11 11 11 11 11 11 12 11 11 11 12 13 13 13 12 11 13 14 12 10 10 12 13 13 12 11 9 4 2 4 9 18 24 22 15 11 5 -4 -13 -17 -5 8 9 9 11 13 12 10 9 9 9 9 10 12 11 9 9 nan
nan 11 12 13 14 14 14 14 13 12 12 11 12 11 12 11 10 10 10 10 10 10 11 13 14 13 13 14 16 14 12 9 10 11 12 12 11 9 4 1 4 8 16 20 17 14 12 10 6 -3 -15 -16 -2 8 11 10 11 11 11 11 12 11 9 9 11 13 12 11 nan
nan 11 12 12 13 14 14 14 14 14 14 14 14 13 12 12 11 10 9 10 9 8 8 10 11 11 11 11 14 14 13 11 9 10 11 12 11 9 7 4 6 11 18 17 13 13 12 11 11 7 -3 -20 -17 1 10 11 10 10 9 10 12 11 9 7 8 11 12 13 nan
nan 10 11 11 12 12 13 14 15 15 15 16 15 14 12 12 11 11 10 11 10 8 6 6 7 7 8 8 10 12 13 12 10 11 11 12 11 9 9 7 7 14 21 19 12 12 12 12 13 11 8 -13 -22 -9 5 10 9 9 7 10 12 11 8 8 8 7 6 9 nan
nan 9 9 10 11 12 13 14 15 15 14 13 13 13 12 11 11 11 11 11 11 9 8 6 5 6 6 6 7 9 10 11 11 11 12 12 12 11 10 9 8 13 21 20 13 11 11 12 13 13 13 -5 -19 -12 2 11 9 7 7 10 12 11 8 9 12 10 7 5 nan
nan 8 9 10 11 12 13 14 15 15 14 12 12 12 11 11 11 11 11 11 12 11 10 8 8 7 7 7 7 8 8 9 10 10 10 11 12 11 11 11 12 14 20 20 13 11 11 12 13 13 14 -1 -14 -10 1 8 9 8 9 11 12 10 5 5 12 15 12 7 nan
nan 9 9 10 12 13 14 15 15 15 14 14 13 13 12 12 11 11 11 11 12 13 12 11 11 11 11 10 9 9 9 11 11 11 11 10 10 10 9 10 15 19 21 18 13 11 11 11 12 13 14 2 -9 -4 2 5 6 9 11 13 14 13 9 4 6 11 13 10 nan
nan 8 9 11 13 14 14 14 14 14 14 14 14 14 13 13 12 11 10 10 11 12 13 13 13 13 13 13 12 11 10 11 14 14 13 12 12 10 7 4 12 22 23 18 13 12 11 11 11 12 14 4 -5 2 8 6 4 7 9 10 11 12 12 9 7 9 11 10 nan
nan 5 7 10 12 12 12 13 13 13 13 14 14 15 14 12 11 11 11 10 9 9 10 11 12 12 12 13 13 13 11 10 12 14 14 13 12 11 8 3 7 17 20 17 13 12 12 11 11 11 10 4 1 9 14 12 8 9 8 7 8 10 9 8 8 10 11 12 nan
nan 4 7 10 11 11 12 13 13 13 13 14 14 15 14 12 12 12 12 12 11 10 10 10 11 11 11 11 12 13 13 11 10 12 13 13 12 11 10 7 9 16 18 16 13 13 12 12 12 10 5 1 3 12 15 15 15 17 13 8 8 9 9 8 7 9 10 12 nan
nan 6 9 10 11 11 12 13 13 13 13 14 14 14 14 13 13 14 13 14 13 12 11 12 11 12 12 11 11 12 13 12 11 11 12 12 11 11 10 10 12 17 20 18 14 13 12 13 11 8 2 -0 3 10 13 14 16 20 19 13 10 10 8 9 11 11 11 11 nan
nan 9 11 11 10 11 11 12 12 12 13 14 14 14 13 13 14 15 15 14 14 13 13 12 12 12 13 11 11 12 13 13 12 11 11 11 11 11 10 10 12 16 21 21 16 13 12 13 12 7 -3 -4 3 7 10 13 15 17 17 15 14 14 7 6 12 15 17 16 nan
nan 10 10 10 10 10 11 11 11 13 15 16 15 14 13 13 13 14 15 15 14 13 13 13 12 11 12 12 11 13 14 14 13 12 10 11 11 10 8 8 10 14 20 21 17 13 12 12 12 8 -3 -7 1 5 8 12 15 14 13 13 15 17 11 6 9 14 21 25 nan
nan 10 10 10 11 11 11 11 12 14 15 14 13 14 15 14 13 12 13 15 14 13 13 14 13 11 12 12 12 13 13 14 14 13 12 10 12 12 8 7 9 14 18 21 18 14 12 11 12 9 -2 -5 1 5 7 12 14 12 10 10 13 15 15 11 8 11 18 27 nan
nan nan nan nan nan nan nan nan nan nan nan nan nan nan nan nan nan nan nan nan nan nan nan nan nan nan nan nan nan nan nan nan nan nan nan nan nan nan nan nan nan nan nan nan nan nan nan nan nan nan nan nan nan nan nan nan nan nan nan nan nan nan nan nan nan nan nan nan nan
CAPE
nan nan nan nan nan nan nan nan nan nan nan nan nan nan nan nan nan nan nan nan nan nan nan nan nan nan nan nan nan nan nan nan nan nan nan nan nan nan nan nan nan nan nan nan nan nan nan nan nan nan nan nan nan nan nan nan nan nan nan nan nan nan nan nan nan nan nan nan nan
nan nan nan nan nan nan nan nan nan nan nan nan nan nan nan nan nan nan nan nan nan nan nan nan nan nan nan nan nan nan nan nan nan nan nan nan nan nan nan nan nan nan nan nan nan nan nan nan nan nan nan nan nan nan nan nan nan nan nan nan nan nan nan nan nan nan nan nan nan
nan nan nan nan nan nan nan nan nan nan nan nan nan nan nan nan nan nan nan nan nan nan nan nan nan nan nan nan nan nan nan nan nan nan nan nan nan nan nan nan nan nan nan nan nan nan nan nan nan nan nan nan nan nan nan nan nan nan nan nan nan nan nan nan nan nan nan nan nan
nan nan nan nan nan nan nan nan nan nan nan nan nan nan nan nan nan nan nan nan nan nan nan nan nan nan nan nan nan nan nan nan nan nan nan nan nan nan nan nan nan nan nan nan nan nan nan nan nan nan nan nan nan nan nan nan nan nan nan nan nan nan nan nan nan nan nan nan nan
nan nan nan nan nan nan nan nan nan nan nan nan nan nan nan nan nan nan nan nan nan nan nan nan nan nan nan nan nan nan nan nan nan nan nan nan nan nan nan nan nan nan nan nan nan nan nan nan nan nan nan nan nan nan nan nan nan nan nan nan nan nan nan nan nan nan nan nan nan
nan nan nan nan nan nan nan nan nan nan nan nan nan nan nan nan nan nan nan nan nan nan nan nan nan nan nan nan nan nan nan nan nan nan nan nan nan nan nan nan nan nan nan nan nan nan nan nan nan nan nan nan nan nan nan nan nan nan nan nan nan nan nan nan nan nan nan nan nan
nan nan nan nan nan nan nan nan nan nan nan nan nan nan nan nan nan nan nan nan nan nan nan nan nan nan nan nan nan nan nan nan nan nan nan nan nan nan nan nan nan nan nan nan nan nan nan nan nan nan nan nan nan nan nan nan nan nan nan nan nan nan nan nan nan nan nan nan nan
nan nan nan nan nan nan nan nan nan nan nan nan nan nan nan nan nan nan nan nan nan nan nan nan nan nan nan nan nan nan nan nan nan nan nan nan nan nan nan nan nan nan nan nan nan nan nan nan nan nan nan nan nan nan nan nan nan nan nan nan nan nan nan nan nan nan nan nan nan
nan nan nan nan nan nan nan nan nan nan nan nan nan nan nan nan nan nan nan nan nan nan nan nan nan nan nan nan nan nan nan nan nan nan nan nan nan nan nan nan nan nan nan nan nan nan nan nan nan nan nan nan nan nan nan nan nan nan nan nan nan nan nan nan nan nan nan nan nan
nan nan nan nan nan nan nan nan nan nan nan nan nan nan nan nan nan nan nan nan nan nan nan nan nan nan nan nan nan nan nan nan nan nan nan nan nan nan nan nan nan nan nan nan nan nan nan nan nan nan nan nan nan nan nan nan nan nan nan nan nan nan nan nan nan nan nan nan nan
nan nan nan nan nan nan nan nan nan nan nan nan nan nan nan nan nan nan nan nan nan nan nan nan nan nan nan nan nan nan nan nan nan nan nan nan nan nan nan nan nan nan nan nan nan nan nan nan nan nan nan nan nan nan nan nan nan nan nan nan nan nan nan nan nan nan nan nan nan
nan nan nan nan nan nan nan nan nan nan nan nan nan nan nan nan nan nan nan nan nan nan nan nan nan nan nan nan nan nan nan nan nan nan nan nan nan nan nan nan nan nan nan nan nan nan nan nan nan nan nan nan nan nan nan nan nan nan nan nan nan nan nan nan nan nan nan nan nan
nan nan nan nan nan nan nan nan nan nan nan nan nan nan nan nan nan nan nan nan nan nan nan nan nan nan nan nan nan nan nan nan nan nan nan nan nan nan nan nan nan nan nan nan nan nan nan nan nan nan nan nan nan nan nan nan nan nan nan nan nan nan nan nan nan nan nan nan nan
nan nan nan nan nan nan nan nan nan nan nan nan nan nan nan nan nan nan nan nan nan nan nan nan nan nan nan nan nan nan nan nan nan nan nan nan nan nan nan nan nan nan nan nan nan nan nan nan nan nan nan nan nan nan nan nan nan nan nan nan nan nan nan nan nan nan nan nan nan
nan nan nan nan nan nan nan nan nan nan nan nan nan nan nan nan nan nan nan nan nan nan nan nan nan nan nan nan nan nan nan nan nan nan nan nan nan nan nan nan nan nan nan nan nan nan nan nan nan nan nan nan nan nan nan nan nan nan nan nan nan nan nan nan nan nan nan nan 0
nan nan nan nan nan nan nan nan nan nan nan nan nan nan nan nan nan nan nan nan nan nan nan nan nan nan nan nan nan nan nan nan nan nan nan nan nan nan nan nan nan nan nan nan nan nan nan nan nan nan nan nan nan nan nan nan nan nan nan nan nan nan nan nan nan nan nan nan 0
nan nan nan nan nan nan nan nan nan nan nan nan nan nan nan nan nan nan nan nan nan nan nan nan nan nan nan nan nan nan nan nan nan nan nan nan nan nan nan nan nan nan nan nan nan nan nan nan nan nan nan nan nan nan nan nan nan nan nan nan nan nan nan nan nan nan nan 0 1
nan nan nan nan nan nan nan nan nan nan nan nan nan nan nan nan nan nan nan nan nan nan nan nan nan nan nan nan nan nan nan nan nan nan nan nan nan nan nan nan nan nan nan nan nan nan nan nan nan nan nan nan nan nan nan nan nan nan nan nan nan nan nan nan nan nan nan nan 0
nan nan nan nan nan nan nan nan nan nan nan nan nan nan nan nan nan nan nan nan nan nan nan nan nan nan nan nan nan nan nan nan nan nan nan nan nan nan nan nan nan nan nan nan nan nan nan nan nan nan nan nan nan nan nan nan nan nan nan nan nan nan nan nan nan nan nan nan nan
nan nan nan nan nan nan nan nan nan nan nan nan nan nan nan nan nan nan nan nan nan nan nan nan nan nan nan nan nan nan nan nan nan nan nan nan nan nan nan nan nan nan nan nan nan nan nan nan nan nan nan nan nan nan nan nan nan nan nan nan nan nan nan nan nan nan nan nan nan
nan nan nan nan nan nan nan nan nan nan nan nan nan nan nan nan nan nan nan nan nan nan nan nan nan nan nan nan nan nan nan nan nan nan nan nan nan nan nan nan nan nan nan nan nan nan nan nan nan nan nan nan nan nan nan nan nan nan nan nan nan nan nan nan nan nan nan nan nan
nan nan nan nan nan nan nan nan nan nan nan nan nan nan nan nan nan nan nan nan nan nan nan nan nan nan nan nan nan nan nan nan nan nan nan nan nan nan nan nan nan nan nan nan nan nan nan nan nan nan nan nan nan nan nan nan nan nan nan nan nan nan nan nan nan nan nan nan nan
nan nan nan nan nan nan nan nan nan nan nan nan nan nan nan nan nan nan nan nan nan nan nan nan nan nan nan nan nan nan nan nan nan nan nan nan nan nan nan nan nan nan nan nan nan nan nan nan nan nan nan nan nan nan nan nan nan nan nan nan nan nan nan nan nan nan nan nan nan
nan nan nan nan nan nan nan nan nan nan nan nan nan nan nan nan nan nan nan nan nan nan nan nan nan nan nan nan nan nan nan nan nan nan nan nan nan nan nan nan nan nan nan nan nan nan nan nan nan nan nan nan nan nan nan nan nan nan nan nan nan nan nan nan nan nan nan nan nan
nan nan nan nan nan nan nan nan nan nan nan nan nan nan nan nan nan nan nan nan nan nan nan nan nan nan nan nan nan nan nan nan nan nan nan nan nan nan nan nan nan nan nan nan 6 6 12 2 nan nan nan nan nan nan nan nan nan nan nan nan nan nan nan nan nan nan nan nan 0
nan nan nan nan nan nan nan nan nan nan nan nan nan nan nan nan nan nan nan nan nan nan nan nan nan nan nan nan nan nan nan nan nan nan nan nan nan nan nan nan nan nan nan nan 15 15 27 30 14 14 nan nan nan nan nan nan nan nan nan nan nan nan nan nan nan nan nan nan nan
nan nan nan nan nan nan nan nan nan nan nan nan nan nan nan nan nan nan nan nan nan nan nan nan nan nan nan nan nan nan nan nan nan nan nan nan nan nan nan nan nan nan nan 1 20 20 34 44 43 43 18 nan nan nan nan nan nan nan nan nan nan nan nan nan nan nan nan nan nan
nan nan nan nan nan nan nan nan nan nan nan nan nan nan nan nan nan nan nan nan nan nan nan nan nan nan nan nan nan nan nan nan nan nan nan nan nan nan nan nan nan nan nan 9 24 24 37 49 57 57 48 4 nan nan nan nan nan 0 0 nan nan nan nan nan nan nan nan nan nan
nan nan nan nan nan nan nan nan nan nan nan nan nan nan nan nan nan nan nan nan nan nan nan nan nan nan nan nan nan nan nan nan nan nan nan nan nan nan nan nan nan nan nan 16 27 27 39 50 59 59 61 37 nan nan nan nan 0 0 0 nan nan nan nan nan nan nan nan nan nan
nan nan nan nan nan nan nan nan nan nan nan nan nan nan nan nan nan nan nan nan nan nan nan nan nan nan nan nan nan nan nan nan nan nan nan nan nan nan nan nan nan nan nan 17 29 29 40 48 61 61 70 66 6 nan nan nan nan 0 0 nan nan nan nan nan nan nan nan nan nan
nan nan nan nan nan nan nan nan nan nan nan nan nan nan nan nan nan nan nan nan nan nan nan nan nan nan nan nan nan nan nan nan nan nan nan nan nan nan nan nan nan nan nan 16 30 30 41 51 61 61 73 82 25 nan nan nan nan nan nan nan nan nan nan nan nan nan nan nan nan
nan nan nan nan nan nan nan nan nan nan nan nan nan nan nan nan nan nan nan nan nan nan nan nan nan nan nan nan nan nan nan nan nan nan nan nan nan nan nan nan nan nan nan 15 29 29 42 52 64 64 77 88 47 nan nan nan nan nan nan nan nan nan nan nan nan nan nan nan nan
nan nan nan nan nan nan nan nan nan nan nan nan nan nan nan nan nan nan nan nan nan nan nan nan nan nan nan nan nan nan nan nan nan nan nan nan nan nan nan nan nan 0 0 16 29 29 41 52 65 65 78 92 53 nan nan nan nan nan nan nan nan nan nan nan nan nan nan nan nan
nan nan nan nan nan nan nan nan nan nan nan nan nan nan nan nan nan nan nan nan nan nan nan nan nan nan nan nan nan nan nan nan nan nan nan nan nan nan nan nan nan 4 4 20 31 31 40 51 65 65 78 90 51 nan nan nan nan nan nan nan nan nan nan nan nan nan nan nan nan
nan nan nan nan nan nan nan nan nan nan nan nan nan nan nan nan nan nan nan nan nan nan nan nan nan nan nan nan nan nan nan nan nan nan nan nan nan nan nan nan nan 5 5 20 31 31 41 51 63 63 78 78 42 3 3 nan nan nan nan nan nan nan nan nan nan nan nan nan nan
nan nan nan nan nan nan nan nan nan nan nan nan nan nan nan nan nan nan nan nan nan nan nan nan nan nan nan nan nan nan nan nan nan nan nan nan nan nan nan nan nan 3 3 19 30 30 41 50 63 63 75 58 32 13 13 nan nan nan nan nan nan nan nan nan nan nan nan nan nan
nan nan nan nan nan nan nan nan nan nan nan nan nan nan nan nan nan nan nan nan nan nan nan nan nan nan nan nan nan nan nan nan nan nan nan nan nan nan nan nan nan 0 0 16 32 32 40 54 66 66 69 46 27 21 21 nan nan nan nan nan nan 0 0 nan nan nan nan nan nan
nan nan nan nan nan nan nan nan nan nan nan nan nan nan nan nan nan nan nan nan nan nan nan nan nan nan nan nan nan nan nan nan nan nan nan nan nan nan nan nan nan nan nan 11 30 30 41 55 67 67 65 28 22 27 27 3 nan nan nan nan nan nan nan 1 nan nan 0 0 5
nan nan nan nan nan nan nan nan nan nan nan nan nan nan nan nan nan nan nan nan nan nan nan nan nan nan nan nan nan nan nan nan nan nan nan nan nan nan nan nan nan nan nan 7 26 26 41 55 67 67 70 38 23 29 29 16 nan nan nan 0 0 0 0 1 0 0 0 4 25
nan nan nan nan nan nan nan nan nan nan nan nan nan nan nan nan nan nan nan nan nan nan nan nan nan nan nan nan nan nan nan nan nan nan nan nan nan nan nan nan nan nan nan 6 23 23 39 55 68 68 74 44 24 26 26 22 3 nan nan 1 1 0 0 1 1 1 1 3 37
nan nan nan nan nan nan nan nan nan nan nan nan nan nan nan nan nan nan nan nan nan nan nan nan nan nan nan nan nan nan nan nan nan nan nan nan nan nan nan nan nan nan nan 4 23 23 37 54 68 68 76 31 23 25 25 25 10 1 1 2 1 0 0 0 1 1 1 1 10